Location: Peterborough
(44.3091°N, 78.3197°W)
Time: 03:59:34
(UTC-04:00)

S-56A Canister/Altair - Pass Details

Date: 22 March 2023
Orbit: 639 x 2492 km, 38.9° (Epoch: 08 June)

Event Time Altitude Azimuth Distance (km) Brightness Sun altitude
Rises 04:19:08 0° 284° (WNW) 6,145 - -30.1°
Reaches altitude 10° 04:24:40 10° 271° (W) 5,013 - -29.3°
Maximum altitude 04:33:49 21° 230° (SW) 3,788 - -27.9°
Drops below altitude 10° 04:41:32 10° 187° (S) 4,123 - -26.7°
Exits shadow 04:43:26 - 180° (S) 4,413 11.1 -26.4°
Sets 04:45:32 0° 172° (S) 4,801 11.4 -26.1°
